Flag for Namibia Weather past 2 weeks in Windhoek, Namibia

Now
64 °F

Mild.


Feels Like: 64 °F
Forecast: 59 / 78 °F
Wind: 7 mph from East

Location: Windhoek

Current Time: Sep 22, 2014 at 8:15:32 AM

Latest Report: Sep 22, 2014 at 5:00 AM


Visibility: N/A

Pressure: 30.21 "Hg

Humidity: 30%

Dew point: 32 °F

Location of WindhoekLocation

Historic Weather in Windhoek — Graph

°F

Windhoek temperature yesterday

Maximum temperature yesterday: 82 °F (at 12:00 PM)
Minimum temperature yesterday: 59 °F (at 6:00 AM)
Average temperature yesterday: 72 °F

Past Weeks' High & Low Weather Summary

 TemperatureHumidityPressure
High88 °F (Sep 11, 3:00 PM)64% (Sep 14, 5:00 AM)30.42 "Hg (Sep 14, 5:00 AM)
Low48 °F (Sep 19, 6:00 AM)3% (Sep 18, 1:00 PM)30.07 "Hg (Sep 17, 3:00 PM)
Average71 °F21%30.24 "Hg
* Reported Sep 7 5:00 AM — Sep 22 5:00 AM, Windhoek, Weather by CustomWeather, © 2014

Note: Actual official high and low records may vary slightly from our data, if they occured in-between our weather recording intervals... More about our weather records

Advertising

Windhoek weather history for previous 24 hours

 ConditionsComfort  
Time TempWeatherWind HumidityBarometerVisibility
5:00 AM
Sep 22
64 °FMild.7 mph30%30.21 "HgN/A
4:00 AM68 °FMild.3 mph26%30.24 "HgN/A
3:00 AM72 °FMild.6 mph23%30.24 "HgN/A
2:00 AM70 °FMild.6 mph25%30.24 "HgN/A
1:00 AM72 °FMild.7 mph25%30.24 "HgN/A
12:00 AM70 °FMild.3 mph20%30.24 "HgN/A
11:00 PM
Sep 21
72 °FMild.5 mph16%30.24 "HgN/A
10:00 PM72 °FMild.3 mph20%30.27 "HgN/A
9:00 PM73 °FMild.2 mph22%30.24 "HgN/A
7:00 PM77 °FPleasantly warm.3 mph18%30.18 "HgN/A
6:00 PM79 °FPleasantly warm.7 mph16%30.18 "HgN/A
5:00 PM81 °FScattered clouds.6 mph16%30.15 "HgN/A
4:00 PM81 °FScattered clouds.8 mph16%30.15 "HgN/A
3:00 PM82 °FBroken clouds.9 mph14%30.18 "HgN/A
2:00 PM82 °FBroken clouds.8 mph13%30.18 "HgN/A
1:00 PM82 °FPartly sunny.8 mph14%30.21 "HgN/A
12:00 PM82 °FSunny.9 mph15%30.24 "Hg10 mi
11:00 AM81 °FSunny.10 mph16%30.27 "Hg10 mi
10:00 AM79 °FSunny.7 mph13%30.27 "Hg10 mi
9:00 AM72 °FSunny.7 mph15%30.27 "Hg10 mi
8:00 AM64 °FSunny.7 mph19%30.27 "Hg10 mi
Weather by CustomWeather, © 2014

See weather overviewHow to use our weather pages